sat.trackr.live / text

‹ back to catalog

STARLINK-32754

NORAD 62527 · 2025-004S

PAYLOAD ACTIVE UNKNOWN

§ Identity

Operator
Country
US
Launch date
2025-01-08
Launch site
AFETR
Launch vehicle
Mass (kg)
RCS (m²)

Purposes: comms

External: N2YO · Heavens-Above · Gunter

§ Orbital elements

Epoch: 2026-09-21T11:47:47.812704Z

Period
94.27 min
Inclination
43.0010°
Eccentricity
0.0000939
Mean motion
15.27584239 rev/d
Perigee alt
482.4 km
Apogee alt
483.7 km
Semi-major
6,861.2 km
B*
3.8657e-4
RAAN
194.1102°
Arg perigee
295.5822°
Mean anomaly
64.4933°
Rev number
9,545

§ Raw data

STARLINK-327541 62527U 25004S   26264.49152561  .00010392  00000+0  38657-3 0  99922 62527  43.0010 194.1102 0000939 295.5822  64.4933 15.27584239 95452

JSON: /api/v1/satellites/62527 · /tle

For live sub-satellite position, see the globe view (requires WebGL).

§ Visibility from observer

Set your observer location to see the next 7 days of passes ≥ 10°. The values pass through the URL so the page stays shareable.

No JS? Fill the form by hand. The geolocation button needs JavaScript.